• In Czech Republic
  • List of Countries
  • For 7 days
  • Water Temperature
  • Satellite Maps
  • Weather Map
  • Weather Widgets
  • user-avatar
    Login

    Hourly Weather Mayrhofen

    Today, 18 October, Wednesday

    Time Temperature Precipitation Wind Pressure Humidity
    00:00 +5°C° 0 mm 2 mps 619 mmHg 62%
    01:00 +5°C° 0 mm 2 mps 619 mmHg 63%
    02:00 +5°C° 0 mm 2 mps 619 mmHg 62%
    03:00 +4°C° 0 mm 2 mps 619 mmHg 61%
    04:00 +4°C° 0 mm 2 mps 618 mmHg 60%
    05:00 +4°C° 0 mm 2 mps 618 mmHg 59%
    06:00 +4°C° 0 mm 2 mps 618 mmHg 57%
    07:00 +3°C° 0 mm 2 mps 618 mmHg 55%
    08:00 +7°C° 0 mm 1 mps 619 mmHg 48%
    09:00 +10°C° 0 mm 1 mps 620 mmHg 41%
    10:00 +13°C° 0 mm 1 mps 621 mmHg 35%
    11:00 +14°C° 0 mm 1 mps 621 mmHg 33%
    12:00 +14°C° 0 mm 1 mps 621 mmHg 31%
    13:00 +15°C° 0 mm 2 mps 621 mmHg 29%
    14:00 +14°C° 0 mm 2 mps 620 mmHg 35%
    15:00 +14°C° 0 mm 2 mps 619 mmHg 40%
    16:00 +13°C° 0 mm 1 mps 619 mmHg 46%
    17:00 +10°C° 0 mm 1 mps 618 mmHg 53%
    18:00 +8°C° 0 mm 1 mps 617 mmHg 60%
    19:00 +5°C° 0 mm 1 mps 617 mmHg 67%
    20:00 +5°C° 0 mm 1 mps 617 mmHg 66%
    21:00 +4°C° 0 mm 2 mps 617 mmHg 65%
    22:00 +3°C° 0 mm 2 mps 617 mmHg 64%
    23:00 +3°C° 0 mm 2 mps 617 mmHg 65%

    Tomorrow, 19 October, Thursday

    Time Temperature Precipitation Wind Pressure Humidity
    00:00 +3°C° 0 mm 2 mps 616 mmHg 66%
    01:00 +3°C° 0 mm 2 mps 616 mmHg 67%
    02:00 +2°C° 0 mm 2 mps 616 mmHg 67%
    03:00 +2°C° 0 mm 2 mps 616 mmHg 67%
    04:00 +2°C° 0 mm 2 mps 616 mmHg 66%
    05:00 +2°C° 0 mm 2 mps 616 mmHg 64%
    06:00 +2°C° 0 mm 2 mps 616 mmHg 62%
    07:00 +2°C° 0 mm 2 mps 616 mmHg 59%
    08:00 +6°C° 0 mm 1 mps 617 mmHg 51%
    09:00 +9°C° 0 mm 1 mps 618 mmHg 42%
    10:00 +12°C° 0 mm 1 mps 619 mmHg 34%
    11:00 +13°C° 0 mm 1 mps 619 mmHg 32%
    12:00 +13°C° 0 mm 1 mps 619 mmHg 30%
    13:00 +14°C° 0 mm 1 mps 619 mmHg 28%
    14:00 +13°C° 0 mm 1 mps 619 mmHg 34%
    15:00 +13°C° 0 mm 1 mps 618 mmHg 41%
    16:00 +12°C° 0 mm 1 mps 618 mmHg 47%
    17:00 +10°C° 0 mm 1 mps 617 mmHg 53%
    18:00 +7°C° 0 mm 1 mps 616 mmHg 60%
    19:00 +5°C° 0 mm 1 mps 615 mmHg 66%
    20:00 +4°C° 0 mm 2 mps 616 mmHg 68%
    21:00 +4°C° 0 mm 2 mps 616 mmHg 69%
    22:00 +3°C° 0 mm 2 mps 616 mmHg 71%
    23:00 +3°C° 0 mm 2 mps 616 mmHg 73%

    Day after tomorrow, 20 October, Friday

    Time Temperature Precipitation Wind Pressure Humidity
    00:00 +3°C° 0 mm 2 mps 616 mmHg 75%
    01:00 +3°C° 0 mm 2 mps 616 mmHg 77%
    02:00 +3°C° 0 mm 2 mps 615 mmHg 78%
    03:00 +3°C° 0 mm 2 mps 615 mmHg 79%
    04:00 +3°C° 0 mm 2 mps 615 mmHg 81%
    05:00 +3°C° 0 mm 2 mps 615 mmHg 81%
    06:00 +3°C° 0 mm 2 mps 616 mmHg 80%
    07:00 +3°C° 0 mm 2 mps 616 mmHg 80%
    08:00 +5°C° 0 mm 2 mps 617 mmHg 71%
    09:00 +9°C° 0 mm 1 mps 618 mmHg 62%
    10:00 +12°C° 0 mm 1 mps 619 mmHg 53%
    11:00 +13°C° 0 mm 1 mps 619 mmHg 51%
    12:00 +13°C° 0 mm 2 mps 619 mmHg 48%
    13:00 +14°C° 0 mm 2 mps 620 mmHg 46%
    14:00 +13°C° 0 mm 1 mps 619 mmHg 51%
    15:00 +13°C° 0 mm 1 mps 619 mmHg 55%
    16:00 +12°C° 0 mm 1 mps 619 mmHg 60%
    17:00 +9°C° 0 mm 1 mps 618 mmHg 69%
    18:00 +7°C° 0 mm 1 mps 618 mmHg 78%
    19:00 +4°C° 0 mm 0 mps 617 mmHg 87%
    20:00 +5°C° 0 mm 1 mps 617 mmHg 87%
    21:00 +5°C° 0 mm 1 mps 618 mmHg 86%
    22:00 +4°C° 0 mm 1 mps 618 mmHg 86%
    23:00 +5°C° 0 mm 1 mps 618 mmHg 84%

    21 October, Saturday

    Time Temperature Precipitation Wind Pressure Humidity
    00:00 +5°C° 0 mm 1 mps 618 mmHg 82%
    01:00 +5°C° 0 mm 1 mps 618 mmHg 81%
    02:00 +5°C° 0 mm 1 mps 618 mmHg 80%
    03:00 +5°C° 0 mm 1 mps 618 mmHg 78%
    04:00 +5°C° 0 mm 1 mps 618 mmHg 77%
    05:00 +5°C° 0 mm 1 mps 618 mmHg 76%
    06:00 +5°C° 0 mm 1 mps 618 mmHg 76%
    07:00 +5°C° 0 mm 1 mps 618 mmHg 75%
    08:00 +8°C° 0 mm 1 mps 619 mmHg 67%
    09:00 +10°C° 0 mm 1 mps 620 mmHg 59%
    10:00 +12°C° 0 mm 1 mps 621 mmHg 51%
    11:00 +13°C° 0 mm 1 mps 621 mmHg 48%
    12:00 +14°C° 0 mm 1 mps 621 mmHg 45%
    13:00 +15°C° 0 mm 1 mps 621 mmHg 42%
    14:00 +14°C° 0 mm 1 mps 620 mmHg 48%
    15:00 +13°C° 0 mm 1 mps 620 mmHg 55%
    16:00 +13°C° 0 mm 1 mps 620 mmHg 61%
    17:00 +10°C° 0 mm 1 mps 619 mmHg 70%
    18:00 +8°C° 0 mm 1 mps 618 mmHg 80%
    19:00 +4°C° 0 mm 0 mps 618 mmHg 90%
    20:00 +4°C° 0 mm 0 mps 618 mmHg 91%
    21:00 +4°C° 0 mm 0 mps 618 mmHg 92%
    22:00 +4°C° 0 mm 0 mps 618 mmHg 93%
    23:00 +4°C° 0 mm 0 mps 618 mmHg 93%

    22 October, Sunday

    Time Temperature Precipitation Wind Pressure Humidity
    00:00 +4°C° 0 mm 0 mps 618 mmHg 93%
    01:00 +5°C° 0 mm 0 mps 618 mmHg 93%
    02:00 +4°C° 0.3 mm 0 mps 617 mmHg 93%
    03:00 +5°C° 0.3 mm 1 mps 617 mmHg 94%
    04:00 +5°C° 0.3 mm 1 mps 617 mmHg 95%
    05:00 +5°C° 0.9 mm 1 mps 617 mmHg 95%
    06:00 +5°C° 0.9 mm 1 mps 617 mmHg 95%
    07:00 +5°C° 0.9 mm 1 mps 617 mmHg 96%
    08:00 +5°C° 1.4 mm 1 mps 617 mmHg 95%
    09:00 +4°C° 1.4 mm 2 mps 617 mmHg 94%
    10:00 +4°C° 1.4 mm 2 mps 617 mmHg 93%
    11:00 +3°C° 1.4 mm 2 mps 617 mmHg 92%
    12:00 +3°C° 1.4 mm 2 mps 616 mmHg 92%
    13:00 +3°C° 1.4 mm 2 mps 616 mmHg 92%
    14:00 +1°C° 1.4 mm 3 mps 616 mmHg 92%
    15:00 +1°C° 1.4 mm 3 mps 616 mmHg 93%
    16:00 0°C° 1.4 mm 3 mps 616 mmHg 93%
    17:00 0°C° 0.7 mm 3 mps 616 mmHg 94%
    18:00 -1°C° 0.7 mm 3 mps 616 mmHg 94%
    19:00 -1°C° 0.7 mm 3 mps 617 mmHg 95%
    20:00 -2°C° 0.2 mm 3 mps 617 mmHg 94%
    21:00 -2°C° 0.2 mm 3 mps 617 mmHg 94%
    22:00 -2°C° 0.2 mm 2 mps 617 mmHg 93%
    23:00 -3°C° 0.1 mm 2 mps 617 mmHg 94%

    23 October, Monday

    Time Temperature Precipitation Wind Pressure Humidity
    00:00 -3°C° 0.1 mm 2 mps 617 mmHg 94%
    01:00 -4°C° 0.1 mm 2 mps 617 mmHg 94%
    02:00 -4°C° 0.1 mm 2 mps 617 mmHg 94%
    03:00 -4°C° 0.1 mm 2 mps 617 mmHg 94%
    04:00 -4°C° 0.1 mm 2 mps 618 mmHg 94%
    05:00 -4°C° 0 mm 2 mps 618 mmHg 94%
    06:00 -5°C° 0 mm 2 mps 618 mmHg 94%
    07:00 -5°C° 0 mm 2 mps 618 mmHg 94%
    08:00 -3°C° 0 mm 2 mps 619 mmHg 89%
    09:00 -2°C° 0 mm 2 mps 619 mmHg 84%
    10:00 +1°C° 0 mm 2 mps 620 mmHg 79%
    11:00 +2°C° 0 mm 2 mps 620 mmHg 77%
    12:00 +3°C° 0 mm 2 mps 620 mmHg 74%
    13:00 +4°C° 0 mm 2 mps 620 mmHg 71%
    14:00 +4°C° 0 mm 2 mps 620 mmHg 73%
    15:00 +3°C° 0 mm 2 mps 620 mmHg 75%
    16:00 +3°C° 0 mm 2 mps 620 mmHg 77%
    17:00 +2°C° 0 mm 2 mps 620 mmHg 79%
    18:00 +1°C° 0 mm 1 mps 620 mmHg 80%
    19:00 -1°C° 0 mm 1 mps 619 mmHg 82%
    20:00 -1°C° 0 mm 1 mps 620 mmHg 77%
    21:00 -1°C° 0 mm 1 mps 620 mmHg 73%
    22:00 0°C° 0 mm 1 mps 620 mmHg 68%
    23:00 0°C° 0 mm 1 mps 620 mmHg 64%
    Show more